Flag for Bahrain Weather past 2 weeks in Riffa, Bahrain

Now
77 °F

Clear.


Feels Like: 79 °F
Forecast: 75 / 85 °F
Wind: 14 mph from Northwest

Location: Bahrain International Airport

Current Time: Apr 19, 2015 at 12:57:36 AM

Latest Report: Apr 19, 2015 at 12:00 AM


Visibility: 10 mi

Pressure: 29.92 "Hg

Humidity: 54%

Dew point: 59 °F

Location of RiffaLocation

Historic Weather in Riffa — Graph

°F

Riffa temperature yesterday

Maximum temperature yesterday: 84 °F (at 12:00 PM)
Minimum temperature yesterday: 75 °F (at 3:00 AM)
Average temperature yesterday: 79 °F

Past Weeks' High & Low Weather Summary

 TemperatureHumidityPressure
High106 °F (Apr 12, 3:00 PM)83% (Apr 16, 5:00 AM)30.04 "Hg (Apr 16, 5:00 AM)
Low70 °F (Apr 16, 3:00 AM)10% (Apr 12, 3:00 PM)29.68 "Hg (Apr 4, 6:00 PM)
Average80 °F49%29.86 "Hg
* Reported Apr 3 11:00 PM — Apr 18 11:00 PM, Riffa, Weather by CustomWeather, © 2015

Note: Actual official high and low records may vary slightly from our data, if they occured in-between our weather recording intervals... More about our weather records

Advertising

Riffa weather history for previous 24 hours

 ConditionsComfort  
Time TempWeatherWind HumidityBarometerVisibility
11:00 PM
Sat, Apr 18
77 °FClear.14 mph44%29.92 "Hg10 mi
10:00 PM77 °FClear.14 mph51%29.92 "Hg10 mi
9:00 PM77 °FClear.16 mph51%29.92 "Hg10 mi
8:00 PM77 °FClear.17 mph47%29.89 "Hg10 mi
7:00 PM77 °FClear.18 mph54%29.89 "Hg10 mi
6:00 PM77 °FSunny.22 mph54%29.86 "Hg10 mi
5:00 PM79 °FSunny.23 mph54%29.86 "Hg10 mi
4:00 PM79 °FSunny.22 mph54%29.86 "Hg10 mi
3:00 PM81 °FSunny.22 mph51%29.86 "Hg10 mi
2:00 PM82 °FSunny.22 mph48%29.86 "Hg10 mi
1:00 PM82 °FSunny.23 mph45%29.89 "Hg10 mi
12:00 PM84 °FSunny.22 mph45%29.89 "Hg10 mi
11:00 AM82 °FSunny.22 mph48%29.92 "Hg10 mi
10:00 AM82 °FSunny.23 mph48%29.92 "Hg10 mi
9:00 AM82 °FSunny.22 mph48%29.92 "Hg10 mi
8:00 AM81 °FSunny.18 mph51%29.89 "Hg10 mi
7:00 AM77 °FSunny.17 mph61%29.89 "Hg10 mi
6:00 AM75 °FSunny.17 mph65%29.86 "Hg10 mi
5:00 AM75 °FClear.17 mph65%29.86 "Hg10 mi
4:00 AM75 °FClear.13 mph69%29.86 "Hg10 mi
3:00 AM75 °FClear.13 mph74%29.86 "Hg10 mi
2:00 AM77 °FClear.10 mph65%29.86 "Hg5 mi
1:00 AM77 °FClear.9 mph61%29.89 "Hg5 mi
12:00 AM77 °FClear.13 mph61%29.89 "Hg4 mi
Weather by CustomWeather, © 2015

See weather overviewHow to use our weather pages